• In Moldova, Republic
  • List of Countries
  • For 7 days
  • Water Temperature
  • Satellite Maps
  • Weather Map
  • Weather Widgets
  • user-avatar
    Login

    Hourly Weather Tibissa

    Today, 24 February, Friday

    Time Temperature Precipitation Wind Pressure Humidity
    00:00 +13°C° 0 mm 4 mps 685 mmHg 44%
    01:00 +13°C° 0 mm 5 mps 684 mmHg 42%
    02:00 +13°C° 0 mm 5 mps 684 mmHg 42%
    03:00 +13°C° 0 mm 5 mps 683 mmHg 42%
    04:00 +13°C° 0 mm 5 mps 683 mmHg 42%
    05:00 +13°C° 0 mm 5 mps 682 mmHg 42%
    06:00 +13°C° 0 mm 5 mps 682 mmHg 41%
    07:00 +13°C° 0 mm 5 mps 682 mmHg 41%
    08:00 +15°C° 0 mm 7 mps 682 mmHg 36%
    09:00 +17°C° 0 mm 8 mps 683 mmHg 31%
    10:00 +19°C° 0 mm 9 mps 683 mmHg 27%
    11:00 +21°C° 0 mm 10 mps 683 mmHg 25%
    12:00 +22°C° 0 mm 11 mps 683 mmHg 22%
    13:00 +23°C° 0 mm 12 mps 683 mmHg 20%
    14:00 +23°C° 0 mm 11 mps 682 mmHg 20%
    15:00 +22°C° 0 mm 10 mps 682 mmHg 20%
    16:00 +22°C° 0 mm 9 mps 681 mmHg 20%
    17:00 +20°C° 0 mm 8 mps 681 mmHg 25%
    18:00 +16°C° 0 mm 6 mps 681 mmHg 30%
    19:00 +14°C° 0 mm 4 mps 681 mmHg 34%
    20:00 +13°C° 0 mm 4 mps 681 mmHg 40%
    21:00 +12°C° 0 mm 3 mps 682 mmHg 47%
    22:00 +12°C° 0 mm 2 mps 682 mmHg 53%
    23:00 +10°C° 0 mm 3 mps 682 mmHg 63%

    Tomorrow, 25 February, Saturday

    Time Temperature Precipitation Wind Pressure Humidity
    00:00 +10°C° 0 mm 3 mps 682 mmHg 74%
    01:00 +9°C° 0 mm 3 mps 682 mmHg 84%
    02:00 +9°C° 0 mm 3 mps 682 mmHg 86%
    03:00 +9°C° 0 mm 3 mps 682 mmHg 87%
    04:00 +8°C° 0 mm 3 mps 682 mmHg 88%
    05:00 +8°C° 0 mm 3 mps 682 mmHg 88%
    06:00 +8°C° 0 mm 3 mps 682 mmHg 88%
    07:00 +8°C° 0 mm 3 mps 683 mmHg 88%
    08:00 +8°C° 0 mm 4 mps 683 mmHg 81%
    09:00 +10°C° 0 mm 4 mps 684 mmHg 74%
    10:00 +11°C° 0 mm 4 mps 685 mmHg 67%
    11:00 +11°C° 0 mm 4 mps 685 mmHg 63%
    12:00 +12°C° 0 mm 4 mps 685 mmHg 60%
    13:00 +12°C° 0 mm 5 mps 685 mmHg 57%
    14:00 +12°C° 0 mm 5 mps 685 mmHg 58%
    15:00 +12°C° 0 mm 5 mps 685 mmHg 59%
    16:00 +10°C° 0 mm 6 mps 684 mmHg 60%
    17:00 +9°C° 0 mm 6 mps 685 mmHg 64%
    18:00 +8°C° 0 mm 6 mps 685 mmHg 67%
    19:00 +7°C° 0 mm 5 mps 685 mmHg 71%
    20:00 +6°C° 0 mm 5 mps 685 mmHg 74%
    21:00 +5°C° 0 mm 5 mps 686 mmHg 78%
    22:00 +3°C° 0 mm 5 mps 686 mmHg 81%
    23:00 +3°C° 0 mm 5 mps 686 mmHg 81%

    Day after tomorrow, 26 February, Sunday

    Time Temperature Precipitation Wind Pressure Humidity
    00:00 +4°C° 0 mm 4 mps 686 mmHg 82%
    01:00 +3°C° 0 mm 4 mps 686 mmHg 82%
    02:00 +3°C° 0 mm 4 mps 686 mmHg 84%
    03:00 +1°C° 0 mm 4 mps 685 mmHg 86%
    04:00 +2°C° 0 mm 3 mps 685 mmHg 88%
    05:00 +2°C° 0 mm 3 mps 685 mmHg 88%
    06:00 +2°C° 0 mm 3 mps 685 mmHg 89%
    07:00 +2°C° 0 mm 2 mps 686 mmHg 90%
    08:00 +3°C° 0 mm 3 mps 686 mmHg 80%
    09:00 +5°C° 0 mm 3 mps 687 mmHg 70%
    10:00 +7°C° 0 mm 4 mps 687 mmHg 60%
    11:00 +8°C° 0 mm 4 mps 687 mmHg 55%
    12:00 +10°C° 0 mm 4 mps 687 mmHg 50%
    13:00 +11°C° 0 mm 4 mps 687 mmHg 46%
    14:00 +12°C° 0 mm 4 mps 687 mmHg 45%
    15:00 +12°C° 0 mm 4 mps 686 mmHg 45%
    16:00 +12°C° 0 mm 4 mps 686 mmHg 45%
    17:00 +10°C° 0 mm 3 mps 686 mmHg 53%
    18:00 +9°C° 0 mm 3 mps 686 mmHg 62%
    19:00 +7°C° 0 mm 3 mps 686 mmHg 70%
    20:00 +6°C° 0 mm 2 mps 686 mmHg 76%
    21:00 +6°C° 0 mm 1 mps 686 mmHg 81%
    22:00 +5°C° 0 mm 1 mps 686 mmHg 87%
    23:00 +5°C° 0 mm 1 mps 686 mmHg 88%

    27 February, Monday

    Time Temperature Precipitation Wind Pressure Humidity
    00:00 +5°C° 0 mm 1 mps 686 mmHg 89%
    01:00 +4°C° 0 mm 1 mps 686 mmHg 90%
    02:00 +4°C° 0 mm 1 mps 685 mmHg 90%
    03:00 +4°C° 0 mm 1 mps 685 mmHg 89%
    04:00 +4°C° 0 mm 1 mps 685 mmHg 89%
    05:00 +3°C° 0 mm 1 mps 685 mmHg 88%
    06:00 +3°C° 0 mm 1 mps 685 mmHg 86%
    07:00 +3°C° 0 mm 1 mps 685 mmHg 85%
    08:00 +6°C° 0 mm 1 mps 686 mmHg 70%
    09:00 +8°C° 0 mm 2 mps 687 mmHg 55%
    10:00 +10°C° 0 mm 2 mps 687 mmHg 40%
    11:00 +13°C° 0 mm 2 mps 687 mmHg 34%
    12:00 +14°C° 0 mm 3 mps 687 mmHg 29%
    13:00 +16°C° 0 mm 3 mps 687 mmHg 24%
    14:00 +17°C° 0 mm 3 mps 687 mmHg 23%
    15:00 +17°C° 0 mm 3 mps 687 mmHg 23%
    16:00 +17°C° 0 mm 3 mps 686 mmHg 23%
    17:00 +14°C° 0 mm 3 mps 686 mmHg 30%
    18:00 +12°C° 0 mm 3 mps 685 mmHg 37%
    19:00 +9°C° 0 mm 2 mps 685 mmHg 44%
    20:00 +8°C° 0 mm 2 mps 685 mmHg 48%
    21:00 +9°C° 0 mm 1 mps 685 mmHg 52%
    22:00 +8°C° 0 mm 1 mps 685 mmHg 56%
    23:00 +7°C° 0 mm 1 mps 685 mmHg 56%

    28 February, Tuesday

    Time Temperature Precipitation Wind Pressure Humidity
    00:00 +7°C° 0 mm 1 mps 685 mmHg 57%
    01:00 +7°C° 0 mm 1 mps 685 mmHg 58%
    02:00 +7°C° 0 mm 1 mps 684 mmHg 59%
    03:00 +6°C° 0 mm 1 mps 684 mmHg 59%
    04:00 +6°C° 0 mm 1 mps 684 mmHg 60%
    05:00 +6°C° 0 mm 1 mps 684 mmHg 63%
    06:00 +6°C° 0 mm 1 mps 684 mmHg 66%
    07:00 +5°C° 0 mm 2 mps 684 mmHg 68%
    08:00 +8°C° 0 mm 2 mps 685 mmHg 57%
    09:00 +12°C° 0 mm 2 mps 686 mmHg 47%
    10:00 +15°C° 0 mm 2 mps 687 mmHg 36%
    11:00 +16°C° 0 mm 2 mps 687 mmHg 32%
    12:00 +18°C° 0 mm 2 mps 687 mmHg 29%
    13:00 +19°C° 0 mm 3 mps 687 mmHg 26%
    14:00 +19°C° 0 mm 3 mps 687 mmHg 26%
    15:00 +19°C° 0 mm 3 mps 687 mmHg 26%
    16:00 +20°C° 0 mm 3 mps 686 mmHg 26%
    17:00 +17°C° 0 mm 3 mps 686 mmHg 33%
    18:00 +15°C° 0 mm 2 mps 686 mmHg 41%
    19:00 +12°C° 0 mm 2 mps 685 mmHg 48%
    20:00 +10°C° 0 mm 2 mps 685 mmHg 52%
    21:00 +10°C° 0 mm 2 mps 686 mmHg 56%
    22:00 +9°C° 0 mm 2 mps 686 mmHg 59%
    23:00 +9°C° 0 mm 1 mps 686 mmHg 62%

    1 March, Wednesday

    Time Temperature Precipitation Wind Pressure Humidity
    00:00 +9°C° 0 mm 1 mps 686 mmHg 65%
    01:00 +8°C° 0 mm 1 mps 686 mmHg 68%
    02:00 +8°C° 0 mm 1 mps 685 mmHg 70%
    03:00 +8°C° 0 mm 1 mps 685 mmHg 71%
    04:00 +7°C° 0 mm 1 mps 685 mmHg 73%
    05:00 +7°C° 0 mm 1 mps 685 mmHg 73%
    06:00 +7°C° 0 mm 1 mps 685 mmHg 73%
    07:00 +6°C° 0 mm 1 mps 686 mmHg 73%
    08:00 +10°C° 0 mm 1 mps 687 mmHg 61%
    09:00 +13°C° 0 mm 1 mps 688 mmHg 48%
    10:00 +16°C° 0 mm 1 mps 689 mmHg 35%
    11:00 +18°C° 0 mm 1 mps 689 mmHg 31%
    12:00 +19°C° 0 mm 1 mps 689 mmHg 27%
    13:00 +20°C° 0 mm 2 mps 689 mmHg 23%
    14:00 +20°C° 0 mm 2 mps 689 mmHg 23%
    15:00 +20°C° 0 mm 2 mps 688 mmHg 22%
    16:00 +20°C° 0 mm 2 mps 688 mmHg 22%
    17:00 +18°C° 0 mm 2 mps 688 mmHg 29%
    18:00 +16°C° 0 mm 2 mps 687 mmHg 37%
    19:00 +13°C° 0 mm 2 mps 687 mmHg 44%
    20:00 +12°C° 0 mm 2 mps 687 mmHg 48%
    21:00 +12°C° 0 mm 2 mps 687 mmHg 52%
    22:00 +11°C° 0 mm 1 mps 687 mmHg 56%
    23:00 +9°C° 0 mm 2 mps 687 mmHg 57%
    Show more